N5CSC Weather Reports


time (UTC)temp
F
wind
direction
speed
knots
gust
knots
rain 1hr
in
rain 24hr
in
rain mn
in
humidity
%
barometer
mb
20260903070019 82 178 0.9 7.8 0.00 0.00 0.00 72 1011.0
20260903064517 82 180 0.9 6.1 0.00 0.00 0.00 72 1011.2
20260903063019 82 148 0.0 0.9 0.00 0.00 0.00 71 1011.5
20260903061521 83 176 0.0 4.3 0.00 0.00 0.00 70 1011.5
20260903060013 83 175 0.0 3.5 0.00 0.00 0.00 69 1011.5
20260903054513 83 160 0.0 3.5 0.00 0.00 0.00 68 1011.4
20260903053008 84 159 0.0 5.2 0.00 0.00 0.00 66 1011.3
20260903051506 84 161 0.0 6.1 0.00 0.00 0.00 64 1011.2
20260903050003 84 167 0.9 9.6 0.00 0.00 0.00 63 1010.8
20260903044501 85 152 4.3 8.7 0.00 0.00 0.00 61 1010.8
20260903043100 86 161 0.9 7.8 0.00 0.00 0.00 59 1010.7
20260903041612 86 180 0.9 7.8 0.00 0.00 0.00 57 1010.9
20260903040059 87 171 1.7 7.8 0.00 0.00 0.00 56 1010.7
20260903034558 88 171 0.0 5.2 0.00 0.00 0.00 55 1010.6
20260903033058 89 156 0.0 4.3 0.00 0.00 0.00 53 1010.4
20260903031557 90 155 0.9 5.2 0.00 0.00 0.00 52 1010.1
20260903030058 90 153 0.0 5.2 0.00 0.00 0.00 50 1009.9
20260903024559 91 118 0.9 6.1 0.00 0.00 0.00 49 1009.6
20260903023056 92 157 0.0 2.6 0.00 0.00 0.00 45 1009.3
20260903021556 92 153 0.0 5.2 0.00 0.00 0.00 43 1008.9
20260903020056 91 158 0.0 2.6 0.00 0.00 0.00 39 1008.8
20260903014612 92 165 0.0 0.0 0.00 0.00 0.00 35 1008.4
20260903013102 93 166 0.0 0.0 0.00 0.00 0.00 33 1008.3
20260903011615 94 165 0.0 0.0 0.00 0.00 0.00 33 1008.2
20260903010107 95 165 0.0 0.0 0.00 0.00 0.00 32 1008.1
20260903004552 97 165 0.0 0.0 0.00 0.00 0.00 31 1008.2
20260903003106 98 166 0.0 0.9 0.00 0.00 0.00 29 1008.1
20260903001558 99 184 0.0 0.9 0.00 0.00 0.00 28 1008.2
20260903000051 100 177 0.9 4.3 0.00 0.00 0.00 26 1008.2
20260902234548 101 178 0.0 1.7 0.00 0.00 0.00 26 1008.2
20260902233048 101 214 0.0 2.6 0.00 0.00 0.00 26 1008.3
20260902231549 101 115 0.0 3.5 0.00 0.00 0.00 26 1008.3
20260902230055 102 151 0.0 1.7 0.00 0.00 0.00 26 1008.4
20260902224647 101 233 0.0 4.3 0.00 0.00 0.00 27 1008.4
20260902223045 101 78 0.0 1.7 0.00 0.00 0.00 26 1008.4
20260902221544 102 144 0.0 1.7 0.00 0.00 0.00 27 1008.4
20260902220044 102 144 0.0 7.8 0.00 0.00 0.00 27 1008.5
20260902214545 103 45 0.0 1.7 0.00 0.00 0.00 27 1008.6
20260902213040 104 153 0.9 6.1 0.00 0.00 0.00 26 1008.8
20260902211538 102 216 0.0 4.3 0.00 0.00 0.00 27 1008.9
20260902210035 102 161 0.0 2.6 0.00 0.00 0.00 28 1009.2
20260902204533 102 156 0.9 5.2 0.00 0.00 0.00 29 1009.4
20260902203030 103 108 0.0 7.0 0.00 0.00 0.00 29 1009.7
20260902201527 103 313 0.0 4.3 0.00 0.00 0.00 28 1009.8
20260902200026 103 270 0.9 6.1 0.00 0.00 0.00 30 1010.2
20260902194534 101 327 0.9 4.3 0.00 0.00 0.00 30 1010.6
20260902193015 101 331 1.7 5.2 0.00 0.00 0.00 32 1010.7
20260902191512 99 219 0.0 6.1 0.00 0.00 0.00 33 1011.0
20260902190009 99 176 0.0 4.3 0.00 0.00 0.00 36 1011.3
20260902184505 99 180 0.0 3.5 0.00 0.00 0.00 33 1011.6
20260902183002 98 175 0.0 6.1 0.00 0.00 0.00 37 1011.9
20260902181559 97 215 0.0 2.6 0.00 0.00 0.00 39 1012.1
20260902180058 97 146 0.0 7.0 0.00 0.00 0.00 41 1012.4
20260902174552 96 174 0.0 3.5 0.00 0.00 0.00 45 1012.7
20260902173048 94 161 0.9 4.3 0.00 0.00 0.00 48 1012.9
20260902171545 93 179 0.0 7.8 0.00 0.00 0.00 51 1013.1
20260902170039 92 192 0.0 5.2 0.00 0.00 0.00 53 1013.3
20260902164535 91 150 0.0 3.5 0.00 0.00 0.00 57 1013.5
20260902163036 90 176 0.9 6.1 0.00 0.00 0.00 59 1013.6
20260902161537 89 192 0.0 3.5 0.00 0.00 0.00 61 1013.6
20260902160028 88 217 0.0 0.9 0.00 0.00 0.00 63 1013.6
20260902154523 87 275 0.0 3.5 0.00 0.00 0.00 65 1013.6
20260902153021 86 169 0.9 6.1 0.00 0.00 0.00 67 1013.6
20260902151526 85 246 0.0 4.3 0.00 0.00 0.00 69 1013.7
20260902150018 84 176 0.0 4.3 0.00 0.00 0.00 73 1013.6
20260902144516 83 197 0.0 2.6 0.00 0.00 0.00 75 1013.8
20260902143013 82 199 0.0 1.7 0.00 0.00 0.00 77 1013.9
20260902141513 81 189 0.0 1.7 0.00 0.00 0.00 77 1013.9
20260902140015 81 205 0.0 4.3 0.00 0.00 0.00 78 1013.9
20260902134522 80 175 0.0 1.7 0.00 0.00 0.00 78 1013.9
20260902133011 79 175 0.0 0.0 0.00 0.00 0.00 79 1013.8
20260902131509 78 175 0.0 0.0 0.00 0.00 0.00 79 1013.8
20260902130007 77 175 0.0 0.0 0.00 0.00 0.00 78 1013.5
20260902124504 77 175 0.0 0.0 0.00 0.00 0.00 78 1013.4
20260902123003 77 175 0.0 0.0 0.00 0.00 0.00 77 1013.1
20260902121505 77 175 0.0 0.0 0.00 0.00 0.00 77 1012.9
20260902114600 78 175 0.0 0.0 0.00 0.00 0.00 77 1012.9
20260902113105 78 175 0.0 0.0 0.00 0.00 0.00 77 1012.8
20260902111600 78 175 0.0 0.0 0.00 0.00 0.00 77 1012.8
20260902104618 78 175 0.0 0.0 0.00 0.00 0.00 76 1012.6
20260902103055 78 173 0.0 0.0 0.00 0.00 0.00 75 1012.6
20260902101555 78 174 0.0 0.0 0.00 0.00 0.00 73 1012.6
20260902100110 78 174 0.0 0.0 0.00 0.00 0.00 71 1012.7
20260902094652 78 174 0.0 0.0 0.00 0.00 0.00 70 1012.7
20260902093058 78 174 0.0 0.0 0.00 0.00 0.00 70 1012.9
20260902091547 79 174 0.0 0.0 0.00 0.00 0.00 69 1012.9
20260902090046 79 174 0.0 0.0 0.00 0.00 0.00 69 1012.9
20260902084544 79 174 0.0 0.0 0.00 0.00 0.00 68 1013.0
20260902083056 79 174 0.0 0.0 0.00 0.00 0.00 67 1013.1
20260902081605 80 174 0.0 0.0 0.00 0.00 0.00 67 1013.1
20260902080053 80 174 0.0 0.0 0.00 0.00 0.00 67 1013.0
20260902074543 81 174 0.0 0.0 0.00 0.00 0.00 65 1013.1
20260902073037 81 174 0.0 0.0 0.00 0.00 0.00 65 1013.1
20260902071538 81 174 0.0 0.0 0.00 0.00 0.00 64 1013.1